When you browse on this site, cookies collect data to enhance your experience and personalize the content and advertising you see.
Visit our Privacy Policy to learn more. By continuing to use the site, you agree to this use of cookies and data.
  • en France
  • Liste des pays
  • À 7 jours
  • Température de l'eau
  • Carte satellitaire
  • Carte météo
  • Widgets météo
  • user-avatar
    Se connecter

    Météo par heure à Bouake

    Ce jour, 20 Novembre, Mardi

    Heure Température Précipitation Vent Pression Humidité
    00:00 +26°C° 0 mm 1 m/s 730 mmHg 86%
    01:00 +26°C° 0.3 mm 1 m/s 730 mmHg 87%
    02:00 +26°C° 0.3 mm 1 m/s 729 mmHg 88%
    03:00 +24°C° 0.3 mm 0 m/s 729 mmHg 88%
    04:00 +25°C° 0 mm 1 m/s 729 mmHg 89%
    05:00 +25°C° 0 mm 1 m/s 729 mmHg 90%
    06:00 +23°C° 0 mm 0 m/s 729 mmHg 90%
    07:00 +25°C° 0 mm 0 m/s 730 mmHg 83%
    08:00 +26°C° 0 mm 0 m/s 730 mmHg 77%
    09:00 +28°C° 0 mm 0 m/s 730 mmHg 70%
    10:00 +30°C° 0 mm 0 m/s 730 mmHg 62%
    11:00 +34°C° 0 mm 1 m/s 730 mmHg 53%
    12:00 +35°C° 0 mm 1 m/s 730 mmHg 44%
    13:00 +35°C° 0 mm 1 m/s 729 mmHg 43%
    14:00 +36°C° 0 mm 1 m/s 729 mmHg 41%
    15:00 +36°C° 0 mm 1 m/s 728 mmHg 40%
    16:00 +34°C° 0 mm 1 m/s 728 mmHg 44%
    17:00 +33°C° 0 mm 1 m/s 728 mmHg 49%
    18:00 +31°C° 0 mm 1 m/s 728 mmHg 53%
    19:00 +31°C° 0.2 mm 1 m/s 729 mmHg 56%
    20:00 +30°C° 0.2 mm 1 m/s 729 mmHg 60%
    21:00 +29°C° 0.2 mm 1 m/s 730 mmHg 63%
    22:00 +28°C° 2.2 mm 1 m/s 730 mmHg 70%
    23:00 +27°C° 2.2 mm 1 m/s 730 mmHg 78%

    Demain, 21 Novembre, Mercredi

    Heure Température Précipitation Vent Pression Humidité
    00:00 +26°C° 2.2 mm 1 m/s 730 mmHg 85%
    01:00 +26°C° 0.2 mm 1 m/s 730 mmHg 86%
    02:00 +26°C° 0.2 mm 1 m/s 729 mmHg 88%
    03:00 +26°C° 0.2 mm 1 m/s 729 mmHg 89%
    04:00 +25°C° 0.9 mm 1 m/s 729 mmHg 90%
    05:00 +25°C° 0.9 mm 1 m/s 729 mmHg 90%
    06:00 +25°C° 0.9 mm 1 m/s 730 mmHg 91%
    07:00 +26°C° 0.1 mm 1 m/s 730 mmHg 87%
    08:00 +27°C° 0.1 mm 2 m/s 731 mmHg 83%
    09:00 +28°C° 0.1 mm 2 m/s 731 mmHg 79%
    10:00 +30°C° 0 mm 2 m/s 731 mmHg 71%
    11:00 +31°C° 0 mm 2 m/s 731 mmHg 63%
    12:00 +34°C° 0 mm 2 m/s 730 mmHg 54%
    13:00 +33°C° 0 mm 1 m/s 730 mmHg 53%
    14:00 +33°C° 0 mm 1 m/s 729 mmHg 52%
    15:00 +33°C° 0 mm 1 m/s 728 mmHg 51%
    16:00 +32°C° 0 mm 1 m/s 728 mmHg 57%
    17:00 +31°C° 0 mm 2 m/s 728 mmHg 62%
    18:00 +29°C° 0 mm 2 m/s 729 mmHg 68%
    19:00 +29°C° 0 mm 2 m/s 729 mmHg 71%
    20:00 +28°C° 0 mm 2 m/s 730 mmHg 73%
    21:00 +27°C° 0 mm 2 m/s 730 mmHg 76%
    22:00 +27°C° 0 mm 2 m/s 730 mmHg 79%
    23:00 +26°C° 0 mm 2 m/s 730 mmHg 82%

    Après-demain, 22 Novembre, Jeudi

    Heure Température Précipitation Vent Pression Humidité
    00:00 +26°C° 0 mm 2 m/s 730 mmHg 85%
    01:00 +25°C° 0 mm 1 m/s 729 mmHg 87%
    02:00 +25°C° 0 mm 1 m/s 729 mmHg 90%
    03:00 +25°C° 0 mm 1 m/s 728 mmHg 92%
    04:00 +24°C° 0 mm 1 m/s 728 mmHg 93%
    05:00 +24°C° 0 mm 1 m/s 729 mmHg 94%
    06:00 +24°C° 0 mm 1 m/s 729 mmHg 95%
    07:00 +26°C° 0 mm 2 m/s 729 mmHg 88%
    08:00 +27°C° 0 mm 2 m/s 730 mmHg 81%
    09:00 +28°C° 0 mm 2 m/s 731 mmHg 73%
    10:00 +30°C° 0 mm 2 m/s 730 mmHg 66%
    11:00 +32°C° 0 mm 1 m/s 730 mmHg 58%
    12:00 +34°C° 0 mm 1 m/s 730 mmHg 51%
    13:00 +35°C° 0 mm 1 m/s 729 mmHg 48%
    14:00 +35°C° 0 mm 1 m/s 728 mmHg 44%
    15:00 +36°C° 0 mm 1 m/s 727 mmHg 41%
    16:00 +34°C° 0 mm 1 m/s 727 mmHg 46%
    17:00 +32°C° 0 mm 1 m/s 728 mmHg 51%
    18:00 +30°C° 0 mm 1 m/s 728 mmHg 56%
    19:00 +29°C° 0 mm 1 m/s 728 mmHg 61%
    20:00 +29°C° 0 mm 2 m/s 729 mmHg 67%
    21:00 +28°C° 0 mm 2 m/s 729 mmHg 72%
    22:00 +27°C° 0 mm 2 m/s 729 mmHg 77%
    23:00 +27°C° 0 mm 2 m/s 729 mmHg 82%

    23 Novembre, Vendredi

    Heure Température Précipitation Vent Pression Humidité
    00:00 +26°C° 0 mm 2 m/s 729 mmHg 86%
    01:00 +25°C° 0 mm 2 m/s 728 mmHg 89%
    02:00 +25°C° 0 mm 2 m/s 728 mmHg 92%
    03:00 +25°C° 0 mm 1 m/s 727 mmHg 95%
    04:00 +24°C° 0 mm 1 m/s 728 mmHg 96%
    05:00 +24°C° 0 mm 1 m/s 728 mmHg 96%
    06:00 +24°C° 0 mm 1 m/s 728 mmHg 96%
    07:00 +25°C° 0 mm 2 m/s 729 mmHg 92%
    08:00 +26°C° 0 mm 2 m/s 730 mmHg 88%
    09:00 +27°C° 0 mm 2 m/s 730 mmHg 83%
    10:00 +28°C° 0 mm 2 m/s 730 mmHg 77%
    11:00 +29°C° 0 mm 2 m/s 729 mmHg 71%
    12:00 +31°C° 0 mm 2 m/s 729 mmHg 64%
    13:00 +32°C° 0 mm 2 m/s 728 mmHg 60%
    14:00 +34°C° 0 mm 2 m/s 728 mmHg 56%
    15:00 +34°C° 0 mm 1 m/s 727 mmHg 52%
    16:00 +32°C° 0.1 mm 1 m/s 727 mmHg 57%
    17:00 +31°C° 0.1 mm 2 m/s 727 mmHg 63%
    18:00 +29°C° 0.1 mm 2 m/s 727 mmHg 68%
    19:00 +28°C° 0 mm 2 m/s 728 mmHg 72%
    20:00 +28°C° 0 mm 2 m/s 729 mmHg 75%
    21:00 +27°C° 0 mm 2 m/s 729 mmHg 79%
    22:00 +26°C° 0.2 mm 2 m/s 729 mmHg 82%
    23:00 +26°C° 0.2 mm 2 m/s 729 mmHg 85%

    24 Novembre, Samedi

    Heure Température Précipitation Vent Pression Humidité
    00:00 +25°C° 0.2 mm 2 m/s 729 mmHg 88%
    01:00 +25°C° 0 mm 2 m/s 728 mmHg 90%
    02:00 +25°C° 0 mm 2 m/s 728 mmHg 92%
    03:00 +25°C° 0 mm 1 m/s 727 mmHg 94%
    04:00 +24°C° 0 mm 1 m/s 728 mmHg 95%
    05:00 +24°C° 0 mm 1 m/s 728 mmHg 96%
    06:00 +24°C° 0 mm 1 m/s 729 mmHg 97%
    07:00 +26°C° 0 mm 1 m/s 729 mmHg 90%
    08:00 +27°C° 0 mm 2 m/s 730 mmHg 83%
    09:00 +29°C° 0 mm 2 m/s 730 mmHg 76%
    10:00 +31°C° 0 mm 2 m/s 730 mmHg 67%
    11:00 +34°C° 0 mm 2 m/s 730 mmHg 59%
    12:00 +35°C° 0 mm 1 m/s 729 mmHg 50%
    13:00 +35°C° 0 mm 1 m/s 728 mmHg 48%
    14:00 +35°C° 0 mm 1 m/s 728 mmHg 46%
    15:00 +35°C° 0 mm 1 m/s 727 mmHg 43%
    16:00 +34°C° 0 mm 1 m/s 727 mmHg 48%
    17:00 +32°C° 0 mm 1 m/s 727 mmHg 53%
    18:00 +31°C° 0 mm 1 m/s 727 mmHg 57%
    19:00 +30°C° 0 mm 1 m/s 728 mmHg 60%
    20:00 +29°C° 0 mm 1 m/s 729 mmHg 62%
    21:00 +29°C° 0 mm 1 m/s 729 mmHg 65%
    22:00 +28°C° 0.1 mm 1 m/s 729 mmHg 69%
    23:00 +27°C° 0.1 mm 2 m/s 729 mmHg 73%

    25 Novembre, Dimanche

    Heure Température Précipitation Vent Pression Humidité
    00:00 +27°C° 0.1 mm 2 m/s 729 mmHg 77%
    01:00 +26°C° 0 mm 2 m/s 728 mmHg 81%
    02:00 +26°C° 0 mm 2 m/s 728 mmHg 85%
    03:00 +25°C° 0 mm 2 m/s 727 mmHg 88%
    04:00 +25°C° 0 mm 2 m/s 728 mmHg 90%
    05:00 +25°C° 0 mm 2 m/s 728 mmHg 91%
    06:00 +24°C° 0 mm 2 m/s 728 mmHg 93%
    07:00 +26°C° 0 mm 2 m/s 729 mmHg 86%
    08:00 +27°C° 0 mm 2 m/s 730 mmHg 80%
    09:00 +28°C° 0 mm 2 m/s 730 mmHg 74%
    10:00 +30°C° 0 mm 2 m/s 730 mmHg 66%
    11:00 +32°C° 0 mm 2 m/s 729 mmHg 59%
    12:00 +34°C° 0 mm 1 m/s 729 mmHg 51%
    13:00 +34°C° 0 mm 1 m/s 728 mmHg 50%
    14:00 +35°C° 0 mm 1 m/s 727 mmHg 49%
    15:00 +35°C° 0 mm 1 m/s 726 mmHg 48%
    16:00 +33°C° 0 mm 1 m/s 727 mmHg 53%
    17:00 +32°C° 0 mm 1 m/s 727 mmHg 57%
    18:00 +31°C° 0 mm 1 m/s 727 mmHg 61%
    19:00 +30°C° 0.2 mm 1 m/s 727 mmHg 66%
    20:00 +29°C° 0.2 mm 2 m/s 728 mmHg 72%
    21:00 +28°C° 0.2 mm 2 m/s 728 mmHg 77%
    22:00 +27°C° 0.1 mm 2 m/s 728 mmHg 80%
    23:00 +26°C° 0.1 mm 2 m/s 728 mmHg 84%
    Voir plus